      5   19 01.50  -07 38.5   1.164   0.333   83.6/ 97   15.0   50.0  -3.1  359/6.76   +2.5   78.8   +3.1  281.8

      6   19 07.09  -07 47.9   1.122   0.303   91.4/102   14.7   55.6  -3.9  360/7.61   +2.6   78.5   +2.6  281.7

      7   19 13.12  -08 06.1   1.080   0.274  101.6/108   14.3   62.4  -4.7    1/8.60   +2.7   78.1   +2.0  281.7

      8   19 19.65  -08 36.8   1.036   0.246  115.6/115   13.7   70.9  -5.6    3/9.74   +2.7   77.4   +1.0  281.8

      9   19 26.72  -09 25.5   0.991   0.220  134.8/124   12.8   81.6  -6.5    6/11.0   +2.7   76.4   -0.3  282.1

     10   19 34.34  -10 39.9   0.947   0.198  160.6/133   11.6   94.8  -7.4   11/12.1   +2.5   75.0   -1.9  282.8

     11   19 42.40  -12 28.3   0.904   0.181  191.0/141    9.9  110.9  -8.2   18/12.6   +2.0   73.1   -4.0  283.9

     12   19 50.64  -14 56.9   0.868   0.172  218.8/149    7.9  128.5  -8.6   30/11.9   +1.2   70.6   -6.5  285.6

     13   19 58.64  -18 02.9   0.839   0.172  234.0/154    6.0  143.6  -8.7   54/9.93   -0.1   67.7   -9.2  287.8 

                    m1 =  4.7 + 5 log △ + 17.0 log r                                     (φ= +35o.5)



 彗星は,近日点通過の前後には,太陽のごく近傍を通過する.このときの彗星

の動きを描いたのが下の図となる.この図には,12月1日から1月19日までの太

陽の近傍での彗星の動きを描いてある.太陽の北側にあった彗星が,1月には,

急速に南下して行くようすがわかるだろう.彗星は,近日点を通過する前後,

LASCO C3広角カメラ(写野約16o)の写野内に1月13日,14日,15日に入ってくる

ことがわかる.従って,年末・年始に,彗星の増光が確認できない場合でも,こ

のときまで待てば,彗星が本当に-8等級まで明るくなっているかどうかが,確実

に判断できることになる.ただし,LASCOカメラには,彗星は,きわめて明るい

天体として捕らえられることに注意のこと.なお,彗星は,近日点通過まで,

地球から見て,太陽の向こう側から近づいてくる.そして,近日点通過頃に太陽

と地球の間に入り込む.そのため,その尾は,地球の方向に伸びるために,近日

点通過時には,それほど長い尾は見られないだろう.

 彗星が明るくなることに関して,いくつかの不安要素もある.それは,この彗

星の近日点距離がq= 0.17 AUと,もともと小さいために,単なる数字の遊びで

明るくなっているのではないかということ.また,この彗星の原初軌道の軌道長

半径の逆数は(1/a)= -0.000003で,軌道の誤差を考慮すると,彗星は,オールト

の彗星雲からやってきたいわゆる「新」彗星であるものと思われる.この種の彗

星は,太陽近傍での活動が鈍く,予報どおり明るくならないことが知られている.

さらに,発見当初の彗星の標準等級H10= 10.0等は,太陽近傍で消滅してしまう

彗星の限界点以下であった.ただし,このことは,11月25日の門田氏の観測光度

が9.3等(H10= 6.4等)であったことを考えると,このボーダ(消滅)はクリア

できただろう.このようにいくつかの心配なことがらもある.しかし,いずれに

しろ,LASCO C3カメラに入ってきたとき,どの程度の明るさになっているかで,

今後の彗星の動向がわかるだろう.楽しみに新年を待ちたい.





2006年12月29日                   山 本 速 報                ISSN 0915-9177

   Since 1920                 YAMAMOTO CIRCULAR                 2540   

   発行:〒656-0011兵庫県洲本市炬口1-3-19  東亜天文学会速報部

郵便振替口座:00980-8-189107   加入者名:東亜天文学会速報部   購読料1部130円

              Published by the Department of Yamamoto Circular

         Collaborating with the Computing and Minor Planet Sections

                    Oriental Astronomical Association

             P. O. Box No.32, Sumoto, Hyogo-Ken, 656-8691 JAPAN

                e-Mail address: yyyyyy@oaa.gr.jp (Subscription)

                  URL: http://www.oaa.gr.jp/~oaacs/yc.htm

             編集:中野 主一   Tel: 0799-22-3747  Fax: 23-1104

                     e-Mail address: nnnnnn@oaa.gr.jp

        Editor: Syuichi Nakano, 3-19, Takenokuchi 1 Chome, Sumoto, Hyogo-Ken,

                               656-0011 JAPAN



マックノート彗星  C/2006 P1 (McNaught)

  12月中旬以後,彗星が見かけ上,太陽から離れたためにその姿がSWANカメラ上

に捕らえられている.彗星の特性が異なるために,参考にならないが,この彗星

の12月20日の姿は,2006年5月に同カメラに写った73P/シュワスマン・ワハマン

第3彗星B核(約4等級)よりは小さい.一方,彗星は,12月26日に4.5等程度で,

眼視観測された.以上の光度観測から新しい彗星の光度式を決定し,南半球中緯

度での夕方と明け方の薄暮時の位置を次のように計算した.図に示したとおり,

南半球では,彗星が近日点を通過した直後から,地平線上に見えることがわかる.

位置予報と図の尾は,その方向を示すためのもので,見かけ上の長さは,正しく

ないだろう.なお,薄暮とは,太陽高度が地平線下 -6゚の位置にあるときで,こ

れは,日没後と日出前の約30分後(前)の時刻にあたる.彗星の増光の程度が少

し鈍いが,これでも,近日点通過時には-4等級まで明るくなる.近日点に近づく

につれ,その活動がより活発になることを期待したい(cf. YC 2524, YC 2538).



                                                                                

             薄暮終了時     薄暮開始時

2007/        α (2000)  δ     △      r     Daily Motion  Elong. Phase   m1    PA/Tail    高度 方位角    高度 方位角

  9h TT     h  m       。  ,       AU      AU      ,     。     。      。      等     。 。        。      。       。      。 

Jan. 14   20 06.02  -21 32.5   0.823   0.183   232.7/157     5.5  148.8   -4.0   91/9.03    -1.8   61.7    -8.9  307.2

     15   20 12.58  -25 07.0   0.817   0.201   218.7/160     7.1  142.4   -3.5  122/10.5    +1.0   59.4    -6.6  309.9

     16   20 18.35  -28 31.6   0.820   0.224   198.5/161     9.8  131.8   -2.9  139/12.2    +3.5   57.0    -4.3  312.2

     17   20 23.46  -31 38.7   0.830   0.250   177.0/161    12.6  121.3   -2.2  148/13.2    +5.7   54.8    -2.2  314.3

     18   20 28.05  -34 26.1   0.845   0.278   156.7/161    15.2  112.1   -1.6  154/13.5    +7.6   52.8    -0.2  316.0

     19   20 32.23  -36 54.2   0.863   0.307   138.5/161    17.6  104.1   -1.0  157/13.4    +9.3   50.9    +1.6  317.5

     20   20 36.11  -39 04.9   0.883   0.337   122.7/160    19.8   97.4   -0.4  160/13.0   +10.7   49.2    +3.2  318.7

     21   20 39.74  -41 00.3   0.904   0.366   109.2/160    21.8   91.5    0.1  162/12.5   +11.9   47.7    +4.7  319.8

     22   20 43.18  -42 42.5   0.926   0.395    97.7/159    23.6   86.5    0.6  164/12.0   +12.9   46.3    +6.1  320.7

     23   20 46.47  -44 13.4   0.948   0.424    87.9/158    25.3   82.1    1.0  166/11.5   +13.8   45.0    +7.3  321.5

     24   20 49.64  -45 34.5   0.971   0.453    79.5/157    26.8   78.3    1.5  167/11.0   +14.6   43.9    +8.5  322.2

     25   20 52.70  -46 47.4   0.994   0.482    72.4/156    28.2   74.9    1.9  168/10.5   +15.3   42.8    +9.5  322.8

     26   20 55.68  -47 53.1   1.016   0.509    66.2/154    29.5   71.8    2.2  169/9.99   +15.9   41.9   +10.5  323.3

     27   20 58.59  -48 52.6   1.038   0.537    61.0/153    30.6   69.1    2.6  170/9.56   +16.4   41.0   +11.4  323.8

     28   21 01.44  -49 46.8   1.061   0.564    56.4/152    31.8   66.7    2.9  171/9.16   +16.9   40.2   +12.2  324.2

     29   21 04.24  -50 36.4   1.082   0.591    52.4/151    32.8   64.5    3.2  172/8.78   +17.3   39.5   +13.0  324.5

     30   21 06.98  -51 22.0   1.104   0.618    49.0/149    33.8   62.5    3.5  173/8.44   +17.7   38.8   +13.8  324.9

     31   21 09.69  -52 04.0   1.125   0.644    46.0/148    34.7   60.7    3.8  173/8.12   +18.1   38.1   +14.5  325.1

Feb.  1   21 12.36  -52 43.0   1.145   0.670    43.3/147    35.6   59.0    4.0  174/7.82   +18.4   37.5   +15.2  325.4

      2   21 15.00  -53 19.2   1.166   0.695    41.0/146    36.5   57.5    4.3  175/7.55   +18.7   37.0   +15.9  325.6

      3   21 17.61  -53 53.0   1.186   0.720    39.0/145    37.3   56.1    4.5  175/7.29   +18.9   36.5   +16.5  325.8

      4   21 20.20  -54 24.7   1.205   0.745    37.2/144    38.1   54.8    4.7  176/7.05   +19.2   36.0   +17.1  326.0

      5   21 22.76  -54 54.5   1.224   0.770    35.5/142    38.9   53.6    5.0  177/6.83   +19.4   35.5   +17.7  326.2

                    m1 =  6.0 + 5 log △ + 13.0 log r                                            (φ = -35o.5)

NAKANO

         **** Don't distribute anyone except personal use only ****

                (C) Copyright 2006 OAA/ComputingSection

write mail from CFAD0::NAKANO on 2006-12-30 05:53:30(JST).





    C/2006 P1 (McNaught)

Epoch 2007 Jan. 20.0 TT = JDT 2454120.5  

T 2007 Jan. 12.79691 TT                                 Nakano

q   0.1707289            (2000.0)            P               Q

z  -0.0001311      Peri.  155.97550     +0.12690527     -0.17391409

 +/-0.0000208      Node   267.41471     +0.67528914     +0.73627697

e   1.0000224      Incl.   77.83491     +0.72655325     -0.65394963

From 191 observations 2006 Aug. 7-Nov. 25, mean residual 0".37.

   (1/a)org.= -0.000003, (1/a)fut.= +0.000457 (+/-0.000021), Q= 6.



NAKANO

         **** Don't distribute anyone except personal use only ****

                (C) Copyright 2006 OAA/ComputingSection

write mail from CFAD0::NAKANO on 2006-12-06 04:14:31(JST).





◎C/2006 P1の軌道と予報位置です



 上尾の門田健一氏から10月25日と11月12日の観測が報告されています.氏の CCD

全光度は,それぞれ,12.9等と10.5等でした.「門田さん.こんな低いところにい

る彗星をどうやって捕らえるのですか」.しかし,間もなく,北半球からは,観測

できなくなります.また,彗星は,11月9日には 9.8等で眼視観測されています.

 これまでに得られたCCD全光度と眼視光度から彗星の光度パラメ−タを決定すると



  m1 =  2.5 + 5 log (delta) + 23 log(r)



となります.注意.光度があまり上がらないように CCD全光度は-1.5等を引いてあ

る(光度見積を明るくしてある).しかし,この光度予報でも,彗星は,近日点通

過時に-15等級まで明るくなります.ただし,彗星のH10は,太陽近くで消滅する限

界線近くにあることに注意.また,彗星の過去軌道の(1/a)originは,-0.000004(

前回のEMESでは +0.000018)と,彗星は,オールトの彗星雲近くからやってきた新

彗星のようです.そのため,光度上昇は期待できないかも知れません.なお,この

値は,Qが低いためにまだ大きく動きます.

 

    C/2006 P1 (McNaught)

Epoch 2007 Jan. 20.0 TT = JDT 2454120.5  

T 2007 Jan. 12.79667 TT                                 Nakano

q   0.1707284            (2000.0)            P               Q

z  -0.0001324      Peri.  155.97551     +0.12690663     -0.17391712

 +/-0.0000263      Node   267.41471     +0.67528933     +0.73627672

e   1.0000226      Incl.   77.83471     +0.72655284     -0.65394910

From 188 observations 2006 Aug. 7-Nov. 12, mean residual 0".37.

   (1/a)org.= -0.000004, (1/a)fut.= +0.000455 (+/-0.000026), Q= 6.

 

Date/  0h TT  R.A.(2000) Decl.     Delta   r     Daily motion  Mag.  Moon Age

                h  m       。  ,                      ,  / PA 。  m1      。

2006 Nov. 15  17 00.70  -13 10.6   2.352  1.512    18.9 /  80   8.5   88  .29

          16  17 01.98  -13 07.2   2.339  1.493    19.2 /  80   8.3   77  .21

          17  17 03.27  -13 03.7   2.327  1.474    19.5 /  79   8.2   66  .14

          18  17 04.58  -13 00.1   2.313  1.455    19.9 /  79   8.1   55  .08

          19  17 05.92  -12 56.4   2.300  1.436    20.3 /  79   7.9   44  .04

          20  17 07.28  -12 52.6   2.286  1.417    20.6 /  79   7.8   33  .01

          21  17 08.67  -12 48.7   2.272  1.398    21.0 /  79   7.6   23  .00

          22  17 10.07  -12 44.7   2.257  1.379    21.4 /  79   7.5   16  .01

          23  17 11.51  -12 40.5   2.242  1.359    21.8 /  79   7.3   17  .05

          24  17 12.96  -12 36.3   2.227  1.340    22.1 /  79   7.2   25  .10

          25  17 14.45  -12 31.8   2.212  1.320    22.6 /  78   7.0   35  .17

          26  17 15.95  -12 27.3   2.196  1.300    23.0 /  78   6.8   47  .26

          27  17 17.49  -12 22.6   2.179  1.280    23.4 /  78   6.7   60  .36

          28  17 19.05  -12 17.8   2.163  1.260    23.8 /  78   6.5   73  .47

